Location: Leuk
(46.3174°N, 7.6341°E)
Time: 16:52:41
(UTC+00:00)

Cosmos 2333 - Pass Details

Date: 09 March 2021
Orbit: 829 x 866 km, 70.9° (Epoch: 14 April)

Event Time Altitude Azimuth Distance (km) Brightness Sun altitude
Rises 03:59:45 0° 329° (NNW) 3,452 7.2 -20.3°
Reaches altitude 10° 04:02:16 10° 325° (NW) 2,514 6.5 -19.9°
Maximum altitude 04:07:51 52° 251° (WSW) 1,074 4.3 -19.0°
Drops below altitude 10° 04:13:24 10° 176° (S) 2,502 6.6 -18.1°
Sets 04:15:55 0° 172° (S) 3,433 7.3 -17.6°
